Regional Weather Roundup
Issued by NWS Lake Charles, LA

Home | Current Version | Previous Version | Text Only | Print | Product List | Glossary On
Versions: 1 2 3 4 5 6 7 8 9 10 11 12 13 14 15 16 17 18 19 20 21 22 23 24 25 26 27 28 29 30 31 32 33 34 35 36 37 38 39 40 41 42 43 44 45 46 47 48 49 50
000
ASUS44 KLCH 271010
RWRLCH
RWRLCH
REGIONAL WEATHER ROUNDUP
NATIONAL WEATHER SERVICE LAKE CHARLES LA
500 AM CDT MON APR 27 2015

Note: "fair" indicates few or no clouds below 12,000 feet with no
significant weather and/or obstructions to visibility.


ACROSS SOUTHEAST TEXAS

CITY           SKY/WX    TMP DP  RH WIND       PRES   REMARKS
BEAUMONT       LGT RAIN  76  73  91 E14       29.58F
BEAUMONT CITY  CLOUDY    74  73  95 E10G16    29.59F FOG
ORANGE         CLOUDY    74  71  90 E10G16    29.62F FOG
JASPER         CLOUDY    74  72  93 E6        29.65R FOG
$$

ACROSS CENTRAL LOUISIANA

CITY           SKY/WX    TMP DP  RH WIND       PRES   REMARKS
LEESVILLE      CLOUDY    69  68  94 NE10      29.65S
FULLERTON      CLOUDY    72  67  84 NE8       29.65F
ALEXANDRIA INT CLOUDY    66  63  90 NE15G21   29.68F
ESLER FIELD    CLOUDY    64  62  93 E9        29.71F
DERIDDER       CLOUDY    71  69  95 E6        29.66R FOG
OAKDALE        CLOUDY    70  69  96 NE3       29.67R FOG
OPELOUSAS      PTSUNNY  N/A N/A N/A NE7       29.67F
$$

ACROSS SOUTHWEST AND SOUTH CENTRAL LOUISIANA

CITY           SKY/WX    TMP DP  RH WIND       PRES   REMARKS
SULPHUR        CLOUDY    75  73  93 E10       29.63F
LAKE CHARLES   CLOUDY    74  71  91 E10       29.62F FOG
CHENNAULT INT  CLOUDY    73  72  95 E8        29.63F FOG
CAMERON PHI    CLOUDY    75  73  94 E12       29.65S FOG
DEQUINCY         N/A     72  72 100 E3        29.63S
JENNINGS       PTSUNNY   73  72  98 E9        29.63F FOG
LAFAYETTE      CLOUDY    73  71  93 E3        29.66F FOG
NEW IBERIA     CLOUDY    74  71  91 E8        29.67F
ABBEVILLE      PTSUNNY   73  72  95 E6        29.65F
PATTERSON      MOCLDY    73  72  94 NE8       29.70R
SALT POINT       N/A     75  73  93 VRB3      29.67R
$$

SELECTED SITES ACROSS THE REGION

CITY           SKY/WX    TMP DP  RH WIND       PRES   REMARKS
HOUSTON BUSH   LGT RAIN  74  73  97 NW8       29.65R FOG
HOUSTON HOBBY  LGT RAIN  76  75  97 NW6       29.62R VSB 1
GALVESTON      CLOUDY    76  76 100 SE12      29.57F FOG
COLLEGE STAT   LGT RAIN  65  63  93 NE15G35   29.59F
CONROE         TSTM      65  62  90 N10G20    29.71R FOG
HUNTSVILLE     TSTM      63  62  97 N22G37    29.75R VSB 3/4
LUFKIN         CLOUDY    75  70  84 SE8       29.58F THUNDER
SHREVEPORT     CLOUDY    62  55  77 NE15G22   29.80R
MONROE         CLOUDY    59  55  87 NE14G23   29.79F
NATCHEZ MS     CLOUDY    64  63  94 NE10      29.74F
BATON ROUGE    MOCLDY    71  69  93 NE6       29.69F FOG
N.O. INTL ARPT CLOUDY    75  71  87 NE5       29.71R
SLIDELL        FOG       70  70 100 N6        29.72R VSB 1/4
$$

MARINE REPORTS

STATION/POSITION TIME  TEMP    WIND        PRES    VSBY  WAVE
                       AIR SEA DIR/SP/G                  HT/PER
                 (UTC) (F)     (DEG/KT/KT) (MB)    (MI)  (FT/S)
BUOY 30 S HIGH I 0950   75 74  110/ 16/ 17 1000.4F         3/ 6
SEA RIM ST PARK  1000   76     110/ 12/ 15 1002.5F
PORT ARTHUR      0900      74  100/  8/ 14 1002.8F
SABINE PASS N    0900   76 76  110/ 11/ 13 1002.6F
TEXAS POINT      NOT AVBL
CALCASIEU PASS   0900   76 77   90/  9/ 11   N/A
LK CHARLES BEACH 0900   73 73              1004.1F
MARSH ISLAND     NOT AVBL
FRESH WATER LOCK 0900   75 78   60/  6/ 11 1004.1R
AMERADA PASS     0900   75 71   70/  4/  7 1004.1R
$$


USA.gov is the U.S. government's official web portal to all federal, state and local government web resources and services.